Location: Arbon
(43.0005°N, 0.7472°E)
Time: 03:40:06
(UTC+00:00)

NOSS 0 Rocket - Pass Details

Date: 07 August 2020
Orbit: 933 x 956 km, 70.0° (Epoch: 25 September)

Event Time Altitude Azimuth Distance (km) Brightness Sun altitude
Rises 01:36:13 0° 330° (NNW) 3,635 7.4 -26.9°
Reaches altitude 10° 01:38:48 10° 326° (NW) 2,688 6.6 -26.7°
Enters shadow 01:44:38 55° 259° (W) 1,141 4.1 -26.2°
